DMSP 5D-2 F12 (USA 106)

Satellite information

Favourite Embed

Satellite Type and Status

PAYLOADIN ORBIT

Key statistics

Satellite DMSP 5D-2 F12 (USA 106) at a glance.

Uptime

11374

Days in orbit

Revolutions

≈ 14.2

Per day

Orbit

SSO

Sun Synchronous Orbit

Inclination

98.7

Latest

Satellite identification and parameters

Extended collection of information and parameters for DMSP 5D-2 F12 (USA 106).

Object identification

Identified? True

Debris? False

Object name: DMSP 5D-2 F12 (USA 106)

International designator: 1994-057A

Object number (NORAD): 23233

Object ID (CCSDS): 23233

Country: UNITED STATES OF AMERICA (US)

Current information (Y/N): Y

RCS size: LARGE

Orbital parameters

Period: 101.693 minutes

Inclination: 98.7078 deg

SMA: 7216.955 km

Apoapsis: 846.049 km

Periapsis: 831.592 km

RAAN: 343.1539 deg

Eccentricy: 0.00100159

Argument of periapsis: 241.0118 deg

Mean anomaly: 119.0053 deg

Mean motion: 14.16027679 rev/day

Mean motion (dot): 0.00000068 rev/day2

B* drag term: 0.000056437136 1/REarth

Two-line elements (TLE)

Creation date: Oct. 19, 2025, 2:20 a.m.

Reference frame: TEME

Reference center: EARTH

Epoch: Oct. 18, 2025, 11:27 p.m. UTC

TLE line 0: 0 DMSP 5D-2 F12 (USA 106)

TLE line 1: 1 23233U 94057A 25291.97737752 .00000068 00000-0 56437-4 0 9997

TLE line 2: 2 23233 98.7078 343.1539 0010016 241.0118 119.0053 14.16027679607833

Live tracking on map

Real-time ground track for satellite DMSP 5D-2 F12 (USA 106).

In-orbit conjunctions

A list of the most updated potential collisions computed for object DMSP 5D-2 F12 (USA 106).

Target Orbit TCA Probability of collision Miss distance Type
SL-16 DEB LEO 2025-05-28 19:07:14 0.001245642 28.0 (m) DEBRIS
NOAA 16 DEB SSO 2024-06-12 02:17:33 0.000186736 744.0 (m) DEBRIS

Associated space launch

Military meteorological satellite

DMSP 5D-2 F12 (USA 106) was lifted into orbit during the mission ‘Atlas E | DMSP-5D2 F12’, on board a Atlas E space rocket.

The launch took place on Aug. 29, 1994, 5:38 p.m. from Space Launch Complex 3W.

For more information about the launch, click the button.

Launch to space Atlas E | DMSP-5D2 F12
Atlas E | DMSP-5D2 F12

Agency: N/A

Status: Launch Successful

Launch date: Aug. 29, 1994, 5:38 p.m. UTC

Rocket: Atlas E

Launch pad: Space Launch Complex 3W

Location: Vandenberg SFB, CA, USA

...

Latest news about this satellite

There are no fresh news available about this satellite. Check back as we update our databases every day.


Newsletter sign-up

Weekly statistics, charts and insights to help you stay on top of the space industry.